Regional Weather Roundup
Issued by NWS

Home | Current Version | Previous Version | Graphics & Text | Print | Product List | Glossary On
Versions: 1 2 3 4 5 6 7 8 9 10 11 12 13 14 15 16 17 18 19 20 21 22 23 24 25 26 27 28 29 30 31 32 33 34 35 36 37 38 39 40 41 42 43 44 45 46 47 48 49 50
000
ASUS45 KCYS 020310
RWRWY

WYOMING REGIONAL WEATHER ROUNDUP
NATIONAL WEATHER SERVICE CHEYENNE WY
900 PM MDT MON JUN 01 2015

NOTE:  "FAIR" INDICATES FEW OR NO CLOUDS BELOW 12,000 FEET
WITH NO SIGNIFICANT WEATHER AND/OR OBSTRUCTIONS TO VISIBILITY.

WYZ001-020400-
YELLOWSTONE NATIONAL PARK

CITY           SKY/WX    TMP DP  RH WIND       PRES   REMARKS
LK YELLOWSTONE   N/A     43  40  89 CALM      30.17F
W YELLOWSTONE  NOT AVBL

$$
WYZ002>013-054>058-071-098>099-020400-
NORTHERN WYOMING

CITY           SKY/WX    TMP DP  RH WIND       PRES   REMARKS
JACKSON        FAIR      50  45  81 CALM      30.10F
CODY           CLOUDY    63  43  48 W23G37    29.96R
GREYBULL       FAIR      65  50  58 W6        29.78R
WORLAND        FAIR      63  51  65 S12       29.81S
SHERIDAN       FAIR      62  49  62 MISG      29.80F
BUFFALO        FAIR      67  42  40 VRB6      29.82F
GILLETTE       FAIR      69  46  43 W18       29.81S
HULETT         FAIR      75  50  41 S25G35    29.84R
NEWCASTLE      MOCLDY    68  50  52 CALM      29.95R

$$
WYZ014>020-022>026-101>103-020400-
CENTRAL WYOMING

CITY           SKY/WX    TMP DP  RH WIND       PRES   REMARKS
BIG PINEY      FAIR      53  38  56 NE12G28   30.09R
PINEDALE       MOCLDY    50  41  71 N21G31    30.14R THUNDER
DUBOIS         CLOUDY    50  39  66 NW17G31   30.16R
LANDER         FAIR      71  34  25 SW15G29   29.89R
RIVERTON       FAIR      67  45  45 S6        29.89S
CASPER         FAIR      66  42  41 S12       29.94R
DOUGLAS        CLOUDY    63  51  65 SW26G35   30.01R

$$
WYZ021-027>030-104>119-020400-
SOUTHERN WYOMING

CITY           SKY/WX    TMP DP  RH WIND       PRES   REMARKS
EVANSTON       MOCLDY    60  40  47 N12       30.06R
KEMMERER       FAIR      54  37  54 NW21      30.09R
FORT BRIDGER   CLEAR     57  41  54 NW12      30.10R
ROCK SPRINGS   FAIR      64  33  31 E3        30.00F
DIXON          FAIR      66  41  39 N12       30.03S
RAWLINS        FAIR      58  48  69 N9        30.04S
SARATOGA       MOCLDY    64  39  39 CALM      30.08R
LARAMIE        FAIR      56  42  59 SE13      30.08F
CHEYENNE       FAIR      63  47  55 S7        30.05F
TORRINGTON     FAIR      67  54  63 SE7       29.93R
PINE BLUFFS    FAIR      59  52  77 N3        30.01S

$$



USA.gov is the U.S. government's official web portal to all federal, state and local government web resources and services.